CW9114 Weather Reports


Display with metric or nautical units.
time (UTC)temp
F
wind
direction
speed
MPH
gust
MPH
rain 1hr
in
rain 24hr
in
rain mn
in
humidity
%
barometer
mb
20260905050008 58 29 0.0 0.0 0.00 0.79 0.00 95 1017.6
20260905044512 59 360 0.0 0.0 0.00 0.79 0.00 95 1017.5
20260905043018 59 360 0.0 0.0 0.00 0.79 0.00 95 1017.5
20260905041525 59 360 0.0 0.0 0.00 0.79 0.00 95 1017.4
20260905040028 60 28 0.0 0.0 0.00 0.79 0.00 95 1017.4
20260905034522 60 26 0.0 0.0 0.00 0.79 0.79 95 1017.3
20260905033024 60 360 0.0 0.0 0.00 0.79 0.79 95 1017.4
20260905031526 60 27 0.0 0.0 0.00 0.79 0.79 95 1017.4
20260905030029 61 27 0.0 0.0 0.00 0.79 0.79 94 1017.5
20260905024532 61 27 0.0 0.0 0.00 0.79 0.79 94 1017.5
20260905023013 61 360 0.0 0.0 0.00 0.79 0.79 94 1017.6
20260905021533 62 360 0.0 0.0 0.00 0.79 0.79 94 1017.4
20260905020028 62 25 0.0 0.0 0.00 0.79 0.79 93 1017.4
20260905014531 63 27 0.0 0.0 0.00 0.79 0.79 93 1017.3
20260905013029 63 28 0.0 0.0 0.00 0.79 0.79 93 1017.3
20260905011512 64 30 0.0 0.0 0.00 0.79 0.79 94 1017.0
20260905010023 64 27 0.0 0.0 0.00 0.79 0.79 93 1016.8
20260905004531 64 28 0.0 0.0 0.00 0.79 0.79 93 1016.7
20260905003036 64 360 0.0 0.0 0.00 0.79 0.79 93 1016.6
20260905001512 65 360 0.0 0.0 0.00 0.79 0.79 93 1016.6
20260905000018 65 26 0.0 1.0 0.00 0.79 0.79 92 1016.7
20260904234523 65 32 0.0 0.0 0.00 0.79 0.79 91 1016.7
20260904233006 65 27 0.0 1.0 0.00 0.79 0.79 91 1016.7
20260904231510 66 25 0.0 1.0 0.00 0.79 0.79 90 1016.8
20260904230016 66 122 0.0 2.0 0.00 0.79 0.79 90 1016.9
20260904224524 66 40 0.0 2.0 0.00 0.79 0.79 90 1016.7
20260904223028 66 36 0.0 5.0 0.00 0.79 0.79 90 1016.6
20260904221519 66 62 0.0 2.0 0.00 0.79 0.79 91 1016.4
20260904220012 66 44 0.0 3.0 0.00 0.79 0.79 91 1016.3
20260904214519 66 58 0.0 3.0 0.00 0.79 0.79 92 1016.2
20260904213023 65 65 1.0 4.0 0.00 0.79 0.79 92 1016.4
20260904211534 66 74 0.0 6.0 0.00 0.79 0.79 92 1016.3
20260904210006 66 43 1.0 5.0 0.00 0.79 0.79 91 1016.3
20260904204511 66 56 0.0 1.0 0.00 0.79 0.79 92 1016.2
20260904203028 66 18 0.0 2.0 0.00 0.79 0.79 93 1016.1
20260904201529 66 360 0.0 1.0 0.00 0.79 0.79 93 1016.1
20260904200032 66 17 0.0 2.0 0.00 0.79 0.79 92 1016.1
20260904194507 66 16 0.0 2.0 0.00 0.79 0.79 92 1016.1
20260904193029 66 66 0.0 3.0 0.00 0.79 0.79 93 1016.3
20260904191523 66 195 0.0 2.0 0.00 0.79 0.79 93 1016.0
20260904190027 66 203 0.0 5.0 0.00 0.79 0.79 95 1015.9
20260904184530 66 73 0.0 2.0 0.00 0.79 0.79 95 1015.8
20260904183010 65 162 0.0 2.0 0.00 0.79 0.79 96 1016.1
20260904181516 65 174 0.0 3.0 0.00 0.79 0.79 95 1015.9
20260904180028 65 115 0.0 4.0 0.00 0.79 0.79 95 1015.9
20260904174527 65 26 0.0 2.0 0.00 0.79 0.79 96 1015.9
20260904173035 65 79 0.0 1.0 0.00 0.79 0.79 96 1015.9
20260904171524 65 68 0.0 2.0 0.00 0.79 0.79 96 1016.0
20260904170020 65 170 0.0 4.0 0.00 0.79 0.79 96 1016.0
20260904164529 65 102 0.0 2.0 0.00 0.79 0.79 96 1016.0
20260904163031 64 85 0.0 3.0 0.00 0.79 0.79 96 1016.1
20260904161542 64 93 1.0 4.0 0.00 0.79 0.79 97 1016.1
20260904160017 64 360 0.0 2.0 0.00 0.79 0.79 97 1016.2
20260904154522 64 360 0.0 2.0 0.00 0.79 0.79 97 1016.0
20260904153030 64 360 0.0 1.0 0.00 0.79 0.79 97 1016.1
20260904151542 64 52 0.0 2.0 0.00 0.79 0.79 97 1016.1
20260904150035 64 15 0.0 4.0 0.00 0.79 0.79 97 1015.7
20260904144520 64 66 0.0 1.0 0.00 0.79 0.79 97 1015.7
20260904143027 63 360 0.0 0.0 0.00 0.79 0.79 97 1015.6
20260904141542 63 360 0.0 0.0 0.00 0.79 0.79 97 1015.8
20260904140034 63 99 0.0 1.0 0.00 0.79 0.79 97 1016.1
20260904134534 63 99 0.0 0.0 0.00 0.79 0.79 97 1015.6
20260904133025 62 99 0.0 2.0 0.00 0.79 0.79 97 1015.6
20260904131528 62 98 0.0 2.0 0.00 0.79 0.79 97 1014.6
20260904130032 62 113 0.0 0.0 0.01 0.79 0.79 96 1014.9
20260904124535 62 113 0.0 2.0 0.08 0.79 0.79 96 1014.9
20260904123017 62 108 0.0 0.0 0.09 0.79 0.79 97 1015.6
20260904121534 62 108 0.0 1.0 0.09 0.79 0.79 97 1015.4
20260904120008 61 108 0.0 1.0 0.08 0.78 0.78 96 1014.9
20260904114509 61 108 0.0 1.0 0.01 0.71 0.71 96 1014.7
20260904113029 61 110 0.0 0.0 0.00 0.70 0.70 96 1015.5
20260904111527 61 110 0.0 0.0 0.00 0.70 0.70 96 1014.9
20260904110002 61 110 0.0 1.0 0.00 0.70 0.70 96 1014.4
20260904104506 61 110 0.0 1.0 0.00 0.70 0.70 96 1014.4
20260904103010 62 122 0.0 1.0 0.00 0.70 0.70 96 1014.5
20260904101517 62 137 0.0 1.0 0.00 0.70 0.70 96 1014.3
20260904100025 61 137 0.0 1.0 0.00 0.70 0.70 96 1014.0
20260904094503 61 259 0.0 2.0 0.00 0.70 0.70 96 1014.5
20260904093008 61 217 0.0 2.0 0.01 0.70 0.70 96 1014.4
20260904091513 61 146 0.0 1.0 0.04 0.70 0.70 96 1014.4
20260904090018 61 360 0.0 4.0 0.09 0.70 0.70 96 1014.4
20260904084528 61 191 0.0 1.0 0.38 0.70 0.70 96 1014.5
20260904083005 61 206 0.0 2.0 0.56 0.69 0.69 96 1014.1
20260904081514 61 16 0.0 2.0 0.54 0.66 0.66 95 1015.1
20260904080020 62 15 0.0 1.0 0.52 0.61 0.61 95 1016.1
20260904074530 62 15 0.0 0.0 0.28 0.32 0.32 95 1016.7
20260904073035 62 18 0.0 0.0 0.12 0.13 0.13 95 1015.9
20260904071508 62 13 0.0 0.0 0.12 0.12 0.12 95 1015.2
20260904070012 62 13 0.0 1.0 0.09 0.09 0.09 95 1015.0
20260904064518 62 15 0.0 0.0 0.04 0.04 0.04 95 1015.4
20260904063027 61 17 0.0 0.0 0.01 0.01 0.01 95 1015.9
20260904061537 61 13 0.0 0.0 0.00 0.00 0.00 94 1015.3
20260904060008 61 13 0.0 1.0 0.00 0.00 0.00 94 1015.5
20260904054515 61 13 0.0 0.0 0.00 0.00 0.00 95 1015.4
20260904053023 60 13 0.0 0.0 0.00 0.00 0.00 94 1015.7
20260904051532 60 13 0.0 0.0 0.00 0.00 0.00 94 1015.4